N960 KMCO-KPBI

Flight info

Callsign N960
Flight time 0h 33m
Altitude 25000
Route DDANY3 BORRD CAPTN3
Aircraft C25C/M-BGS/L

Departure

Time 2026-05-04 23:42
Airport Orlando International Airport (KMCO)

Arrival

Time 2026-05-05 00:15
Airport Palm Beach International Airport (KPBI)
Time Latitude Longitude Altitude Speed Heading
2026-05-04 23:24 28.42311 -81.33013 95 ft 0 kts 360°
2026-05-04 23:38 28.42397 -81.33007 94 ft 21 kts
2026-05-04 23:38 28.42475 -81.32997 94 ft 0 kts 11°
2026-05-04 23:39 28.42482 -81.32987 96 ft 5 kts 90°
2026-05-04 23:39 28.42407 -81.32937 95 ft 20 kts 157°
2026-05-04 23:39 28.42222 -81.32927 97 ft 33 kts 180°
2026-05-04 23:40 28.41952 -81.32912 99 ft 44 kts 178°
2026-05-04 23:40 28.41670 -81.32909 103 ft 38 kts 179°
2026-05-04 23:40 28.41549 -81.32880 102 ft 5 kts 115°
2026-05-04 23:40 28.41540 -81.32813 102 ft 15 kts 90°
2026-05-04 23:41 28.41575 -81.32671 103 ft 25 kts 14°
2026-05-04 23:41 28.41825 -81.32665 99 ft 65 kts 359°
2026-05-04 23:41 28.42625 -81.32622 158 ft 156 kts
2026-05-04 23:41 28.43827 -81.32654 642 ft 186 kts
2026-05-04 23:42 28.45105 -81.32320 1458 ft 192 kts 30°
2026-05-04 23:42 28.46107 -81.31404 2101 ft 176 kts 52°
2026-05-04 23:42 28.46779 -81.30258 2470 ft 174 kts 62°
2026-05-04 23:42 28.47362 -81.29143 3075 ft 158 kts 60°
2026-05-04 23:43 28.47908 -81.28068 3458 ft 159 kts 63°
2026-05-04 23:43 28.48455 -81.26924 3676 ft 169 kts 64°
2026-05-04 23:43 28.49007 -81.25723 4111 ft 180 kts 64°
2026-05-04 23:43 28.49618 -81.24427 4661 ft 191 kts 62°
2026-05-04 23:44 28.50227 -81.23035 5324 ft 202 kts 65°
2026-05-04 23:44 28.50591 -81.21450 5977 ft 214 kts 86°
2026-05-04 23:44 28.50544 -81.19755 6734 ft 218 kts 102°
2026-05-04 23:44 28.49918 -81.18139 7135 ft 233 kts 130°
2026-05-04 23:45 28.48934 -81.16672 7924 ft 237 kts 127°
2026-05-04 23:45 28.47924 -81.15050 8446 ft 267 kts 130°
2026-05-04 23:45 28.46863 -81.13470 10155 ft 234 kts 128°
2026-05-04 23:45 28.45874 -81.11785 10657 ft 265 kts 122°
2026-05-04 23:46 28.44972 -81.09969 11748 ft 263 kts 120°
2026-05-04 23:46 28.44055 -81.08141 12589 ft 274 kts 123°
2026-05-04 23:46 28.43366 -81.06913 13100 ft 281 kts 124°
2026-05-04 23:46 28.42282 -81.05026 13875 ft 290 kts 124°
2026-05-04 23:47 28.41128 -81.02981 14016 ft 318 kts 123°
2026-05-04 23:47 28.39503 -81.00039 14028 ft 344 kts 123°
2026-05-04 23:47 28.38646 -80.98496 14026 ft 352 kts 123°
2026-05-04 23:47 28.37318 -80.96121 14024 ft 360 kts 123°
2026-05-04 23:48 28.35965 -80.93704 14023 ft 365 kts 123°
2026-05-04 23:48 28.34604 -80.91266 14021 ft 363 kts 123°
2026-05-04 23:48 28.33268 -80.88874 14023 ft 354 kts 123°
2026-05-04 23:48 28.31955 -80.86527 14023 ft 354 kts 123°
2026-05-04 23:49 28.30581 -80.84079 13994 ft 385 kts 123°
2026-05-04 23:49 28.29108 -80.81446 13971 ft 398 kts 123°
2026-05-04 23:49 28.27644 -80.78829 13970 ft 387 kts 123°
2026-05-04 23:49 28.26220 -80.76287 13966 ft 377 kts 123°
2026-05-04 23:50 28.24826 -80.73803 13968 ft 372 kts 123°
2026-05-04 23:50 28.23429 -80.71321 13966 ft 374 kts 123°
2026-05-04 23:50 28.22026 -80.68830 13964 ft 375 kts 124°
2026-05-04 23:50 28.20346 -80.66633 14032 ft 369 kts 142°
2026-05-04 23:51 28.18346 -80.64841 14191 ft 365 kts 143°
2026-05-04 23:51 28.16343 -80.63035 14202 ft 369 kts 143°
2026-05-04 23:51 28.14237 -80.61372 14103 ft 372 kts 152°
2026-05-04 23:51 28.11937 -80.60001 14012 ft 375 kts 154°
2026-05-04 23:52 28.09681 -80.58594 14004 ft 376 kts 150°
2026-05-04 23:52 28.07497 -80.56899 14003 ft 377 kts 146°
2026-05-04 23:52 28.05386 -80.55131 14002 ft 377 kts 146°
2026-05-04 23:52 28.03249 -80.53485 14003 ft 376 kts 149°
2026-05-04 23:53 28.01054 -80.51871 14001 ft 376 kts 148°
2026-05-04 23:53 27.98880 -80.50221 14003 ft 376 kts 148°
2026-05-04 23:53 27.96720 -80.48544 14002 ft 376 kts 147°
2026-05-04 23:53 27.94556 -80.46883 14003 ft 376 kts 148°
2026-05-04 23:54 27.92380 -80.45231 14004 ft 376 kts 148°
2026-05-04 23:54 27.90209 -80.43579 14003 ft 376 kts 148°
2026-05-04 23:54 27.88042 -80.41922 14004 ft 376 kts 148°
2026-05-04 23:54 27.85874 -80.40268 14003 ft 376 kts 148°
2026-05-04 23:55 27.83597 -80.38859 13989 ft 372 kts 164°
2026-05-04 23:55 27.81088 -80.38217 13986 ft 369 kts 172°
2026-05-04 23:55 27.76025 -80.37222 13985 ft 370 kts 169°
2026-05-04 23:56 27.73530 -80.36502 13985 ft 370 kts 167°
2026-05-04 23:56 27.71033 -80.35787 13985 ft 370 kts 169°
2026-05-04 23:56 27.68521 -80.35149 13986 ft 370 kts 170°
2026-05-04 23:56 27.66025 -80.34448 13980 ft 371 kts 162°
2026-05-04 23:57 27.63683 -80.33212 13988 ft 372 kts 157°
2026-05-04 23:57 27.61341 -80.31960 13990 ft 372 kts 156°
2026-05-04 23:57 27.58996 -80.30721 13945 ft 373 kts 157°
2026-05-04 23:57 27.56626 -80.29476 13701 ft 376 kts 156°
2026-05-04 23:58 27.54275 -80.28233 13441 ft 372 kts 157°
2026-05-04 23:58 27.51942 -80.26999 13185 ft 369 kts 157°
2026-05-04 23:58 27.49629 -80.25780 12928 ft 366 kts 157°
2026-05-04 23:58 27.47324 -80.24566 12672 ft 365 kts 157°
2026-05-04 23:59 27.45029 -80.23358 12418 ft 363 kts 158°
2026-05-04 23:59 27.42743 -80.22153 12170 ft 362 kts 158°
2026-05-04 23:59 27.40464 -80.20954 11925 ft 361 kts 158°
2026-05-04 23:59 27.38187 -80.19756 11681 ft 361 kts 158°
2026-05-05 00:00 27.35917 -80.18563 11429 ft 360 kts 158°
2026-05-05 00:00 27.34416 -80.17774 11269 ft 360 kts 158°
2026-05-05 00:00 27.31384 -80.16181 10945 ft 359 kts 158°
2026-05-05 00:00 27.29121 -80.14992 10710 ft 358 kts 158°
2026-05-05 00:01 27.27014 -80.13880 10555 ft 315 kts 158°
2026-05-05 00:01 27.25106 -80.12906 10497 ft 289 kts 161°
2026-05-05 00:01 27.23324 -80.12077 10472 ft 275 kts 161°
2026-05-05 00:01 27.21598 -80.11232 10458 ft 267 kts 160°
2026-05-05 00:02 27.19886 -80.10372 10114 ft 273 kts 160°
2026-05-05 00:02 27.18124 -80.09518 9757 ft 278 kts 160°
2026-05-05 00:02 27.16301 -80.08644 9274 ft 285 kts 160°
2026-05-05 00:02 27.14486 -80.07765 8778 ft 291 kts 160°
2026-05-05 00:03 27.12622 -80.06858 8289 ft 294 kts 159°
2026-05-05 00:03 27.10746 -80.05923 7829 ft 295 kts 158°
2026-05-05 00:03 27.08908 -80.05003 7466 ft 276 kts 158°
2026-05-05 00:03 27.07230 -80.04171 7056 ft 263 kts 158°
2026-05-05 00:04 27.05541 -80.03342 6582 ft 266 kts 157°
2026-05-05 00:04 27.03838 -80.02502 6095 ft 268 kts 156°
2026-05-05 00:04 27.02126 -80.01655 5605 ft 269 kts 155°
2026-05-05 00:04 27.00414 -80.00807 5125 ft 269 kts 155°
2026-05-05 00:05 26.98710 -79.99967 4635 ft 265 kts 154°
2026-05-05 00:05 26.97038 -79.99165 4254 ft 257 kts 158°
2026-05-05 00:05 26.95313 -79.99002 4187 ft 245 kts 184°
2026-05-05 00:05 26.93726 -79.99576 4129 ft 238 kts 208°
2026-05-05 00:06 26.92427 -80.00660 4105 ft 228 kts 214°
2026-05-05 00:06 26.91178 -80.01716 4079 ft 222 kts 214°
2026-05-05 00:06 26.89975 -80.02760 4081 ft 216 kts 214°
2026-05-05 00:06 26.88800 -80.03775 4072 ft 211 kts 214°
2026-05-05 00:07 26.87648 -80.04766 4072 ft 207 kts 214°
2026-05-05 00:07 26.86666 -80.05914 4077 ft 207 kts 244°
2026-05-05 00:07 26.86248 -80.07431 4075 ft 207 kts 251°
2026-05-05 00:07 26.85815 -80.08987 3953 ft 212 kts 252°
2026-05-05 00:08 26.85394 -80.10535 3859 ft 202 kts 251°
2026-05-05 00:08 26.84989 -80.12017 3748 ft 196 kts 252°
2026-05-05 00:08 26.84591 -80.13462 3632 ft 192 kts 252°
2026-05-05 00:08 26.84199 -80.14878 3510 ft 189 kts 251°
2026-05-05 00:09 26.83812 -80.16281 3386 ft 188 kts 251°
2026-05-05 00:09 26.83425 -80.17676 3265 ft 188 kts 252°
2026-05-05 00:09 26.83041 -80.19072 3137 ft 188 kts 252°
2026-05-05 00:09 26.82657 -80.20464 3038 ft 185 kts 252°
2026-05-05 00:10 26.82282 -80.21814 3013 ft 179 kts 251°
2026-05-05 00:10 26.81601 -80.22901 2970 ft 170 kts 210°
2026-05-05 00:10 26.80573 -80.23467 2969 ft 160 kts 187°
2026-05-05 00:10 26.79501 -80.23482 2969 ft 151 kts 165°
2026-05-05 00:11 26.78570 -80.23050 2970 ft 143 kts 141°
2026-05-05 00:11 26.77854 -80.22322 2972 ft 138 kts 127°
2026-05-05 00:11 26.77244 -80.21490 2902 ft 140 kts 123°
2026-05-05 00:11 26.76664 -80.20596 2773 ft 144 kts 120°
2026-05-05 00:12 26.76115 -80.19652 2699 ft 145 kts 120°
2026-05-05 00:12 26.75549 -80.18720 2578 ft 144 kts 121°
2026-05-05 00:12 26.74974 -80.17811 2371 ft 140 kts 121°
2026-05-05 00:12 26.74419 -80.16927 2131 ft 139 kts 118°
2026-05-05 00:13 26.73859 -80.16039 1860 ft 141 kts 121°
2026-05-05 00:13 26.73259 -80.15186 1510 ft 136 kts 126°
2026-05-05 00:13 26.72624 -80.14409 1119 ft 134 kts 127°
2026-05-05 00:13 26.72046 -80.13659 899 ft 123 kts 125°
2026-05-05 00:14 26.71480 -80.12965 738 ft 119 kts 130°
2026-05-05 00:14 26.70900 -80.12314 536 ft 118 kts 130°
2026-05-05 00:14 26.70327 -80.11687 334 ft 112 kts 130°
2026-05-05 00:14 26.69803 -80.11082 199 ft 106 kts 133°
2026-05-05 00:15 26.69293 -80.10508 64 ft 101 kts 135°
2026-05-05 00:15 26.68806 -80.09976 19 ft 93 kts 135°
2026-05-05 00:15 26.68447 -80.09582 23 ft 52 kts 134°
2026-05-05 00:15 26.68368 -80.09341 16 ft 17 kts 88°
2026-05-05 00:16 26.68368 -80.09318 16 ft 0 kts 94°
2026-05-05 00:17 26.68365 -80.09276 16 ft 16 kts 94°
2026-05-05 00:17 26.68356 -80.09061 15 ft 38 kts 92°
2026-05-05 00:18 26.68342 -80.08769 17 ft 35 kts 93°
2026-05-05 00:18 26.68252 -80.08650 20 ft 18 kts 158°
2026-05-05 00:18 26.68155 -80.08563 20 ft 18 kts 138°
2026-05-05 00:18 26.68061 -80.08466 22 ft 19 kts 138°
2026-05-05 00:19 26.67982 -80.08348 22 ft 20 kts 119°
2026-05-05 00:19 26.67957 -80.08277 21 ft 0 kts 92°